Home   Weather   Lappeenranta   Past weeks
Flag for Finland

Past Weather in Lappeenranta, Finland — Yesterday and Last 2 Weeks

Now
39 °F

Fog.


Feels Like: 39 °F
Forecast: 50 / 40 °F
Wind: 1 mph from East

Location: Lappeenranta

Current Time: Oct 18, 2019 at 12:12:03 pm

Latest Report: Oct 18, 2019 at 11:20 am


Visibility: 1 mi

Pressure: 29.92 "Hg

Humidity: 100%

Dew Point: 39 °F

Location of LappeenrantaLocation

Past Weather in Lappeenranta — Graph

°F

Lappeenranta Temperature Yesterday

Maximum temperature yesterday: 39 °F (at 11:50 am)
Minimum temperature yesterday: 36 °F (at 2:50 am)
Average temperature yesterday: 37 °F

High & Low Weather Summary for the Past Weeks

 TemperatureHumidityPressure
High50 °F (Oct 12, 11:50 am)100% (Oct 3, 5:50 pm)30.24 "Hg (Oct 3, 5:50 pm)
Low28 °F (Oct 9, 5:50 am)61% (Oct 15, 3:20 pm)29.03 "Hg (Oct 12, 10:50 am)
Average38 °F92%29.78 "Hg
* Reported Oct 3 10:20 am — Oct 18 10:50 am, Lappeenranta. Weather by CustomWeather, © 2019

Note: Actual official high and low records may vary slightly from our data, if they occured in-between our weather recording intervals... More about our weather records

Advertising

Lappeenranta Weather History for the Previous 24 Hours

Scroll right to see more
 ConditionsComfort  
Time TempWeatherWind HumidityBarometerVisibility
10:50 am
Fri, Oct 18
39 °FFog.1 mph100%29.92 "Hg1 mi
10:20 am39 °FFog.1 mph100%29.92 "Hg1 mi
9:50 am39 °FFog.2 mph100%29.89 "Hg1 mi
9:20 am39 °FFog.2 mph100%29.89 "Hg1 mi
8:50 am39 °FFog.2 mph100%29.89 "Hg1 mi
8:20 am39 °FFog.2 mph100%29.89 "Hg1 mi
7:50 am39 °FFog.1 mph100%29.89 "Hg0 mi
7:20 am39 °FFog.3 mph100%29.89 "Hg1 mi
6:50 am37 °FFog.2 mph100%29.89 "Hg1 mi
6:20 am37 °FFog.5 mph100%29.89 "Hg1 mi
5:50 am37 °FFog.5 mph100%29.89 "Hg1 mi
5:20 am37 °FFog.6 mph100%29.89 "Hg2 mi
4:50 am37 °FSprinkles. Fog.7 mph100%29.89 "Hg2 mi
4:20 am37 °FLight rain. Low clouds.6 mph100%29.89 "Hg3 mi
3:50 am37 °FLow clouds.6 mph100%29.89 "Hg4 mi
3:20 am37 °FLow clouds.8 mph100%29.89 "Hg5 mi
2:50 am37 °FLow clouds.6 mph100%29.89 "HgN/A
2:20 am37 °FLow clouds.7 mph100%29.89 "HgN/A
1:50 am37 °FLow clouds.7 mph100%29.89 "HgN/A
1:20 am37 °FLow clouds.7 mph100%29.89 "HgN/A
12:50 am37 °FLow clouds.6 mph100%29.89 "HgN/A
12:20 am37 °FLow clouds.7 mph100%29.86 "HgN/A
11:20 pm
Thu, Oct 17
37 °FLow clouds.8 mph100%29.86 "HgN/A
10:50 pm37 °FLow clouds.8 mph100%29.86 "Hg6 mi
10:20 pm37 °FLow clouds.8 mph100%29.86 "HgN/A
9:50 pm37 °FLow clouds.8 mph100%29.86 "Hg4 mi
9:20 pm37 °FLow clouds.8 mph100%29.86 "Hg4 mi
8:50 pm37 °FLow clouds.8 mph100%29.86 "Hg4 mi
8:20 pm37 °FLow clouds.9 mph100%29.86 "Hg3 mi
7:50 pm37 °FLight rain. Fog.9 mph100%29.86 "Hg2 mi
7:20 pm37 °FLight rain. Fog.10 mph100%29.86 "Hg2 mi
5:50 pm37 °FLight rain. Fog.12 mph93%29.86 "Hg2 mi
5:20 pm37 °FDrizzle. Fog.12 mph93%29.86 "Hg3 mi
4:50 pm39 °FLow clouds.13 mph87%29.86 "HgN/A
4:20 pm39 °FLow clouds.12 mph87%29.86 "HgN/A
3:50 pm39 °FLow clouds.10 mph87%29.86 "HgN/A
3:20 pm39 °FLow clouds.12 mph87%29.86 "HgN/A
2:50 pm39 °FLow clouds.12 mph93%29.83 "HgN/A
2:20 pm39 °FLow clouds.15 mph93%29.83 "HgN/A
1:50 pm39 °FLow clouds.14 mph93%29.86 "HgN/A
1:20 pm39 °FLow clouds.12 mph93%29.86 "HgN/A
12:50 pm39 °FLow clouds.12 mph93%29.86 "HgN/A
12:20 pm39 °FLow clouds.12 mph93%29.86 "HgN/A
Weather by CustomWeather, © 2019

See weather overview